Location: Sternwarte Stuttgart
(48.7670°N, 9.1830°E)
Time: 00:58:08
(UTC+02:00)

Cosmos 1484 Rocket - Pass Details

Date: 24 January 2019
Orbit: 507 x 560 km, 97.4° (Epoch: 19 April)

Event Time Altitude Azimuth Distance (km) Brightness Sun altitude
Rises 05:57:44 0° 13° (NNE) 2,760 6.5 -20.5°
Reaches altitude 10° 05:59:54 10° 15° (NNE) 1,856 5.6 -20.1°
Maximum altitude 06:03:55 81° 101° (E) 568 2.9 -19.5°
Drops below altitude 10° 06:07:52 10° 191° (S) 1,819 5.4 -18.8°
Sets 06:09:58 0° 192° (SSW) 2,700 6.3 -18.5°
